Вернуться в каталог

AE1D

АктивенНаукаPO
NORAD 62618·PAYLOAD·🇯🇵 Japan

Запущен Jan 14, 2025 с Vandenberg Space Force Base

Loading…

Ближайшие Пролёты (ближайшие 24 часа)

TLE

СвежийSource: Space-Track

Эпоха: Sep 14, 2026, 11:55 UTC

1 62618U 25009K   26257.49663488  .00636221  17482-3  15154-2 0  9992
2 62618  97.3837 352.9286 0008576 263.7397  96.2903 15.96594227 93494

Отслеживайте AE1D в реальном времени с AllMySat

Download on the App Store